Date,TemperatureHighF,TemperatureAvgF,TemperatureLowF,DewpointHighF,DewpointAvgF,DewpointLowF,HumidityHigh,HumidityAvg,HumidityLow,PressureMaxIn,PressureMinIn,WindSpeedMaxMPH,WindSpeedAvgMPH,GustSpeedMaxMPH,PrecipitationSumIn
2013-9-1,87.3,72.0,64.8,82.0,81.2,80.1,0,0,100,29.90,29.81,20,10,21,0.00
2013-9-2,86.7,72.7,66.4,82.0,81.4,80.1,0,0,100,29.87,29.79,22,12,22,0.00
2013-9-3,83.5,67.8,59.4,82.0,81.3,81.0,0,0,100,29.98,29.78,30,21,30,0.00
2013-9-4,81.5,63.1,55.0,81.0,79.3,78.1,0,0,100,30.10,29.96,34,16,34,0.00
2013-9-5,83.3,65.4,58.3,80.1,79.2,78.1,0,0,100,30.14,30.05,29,20,29,0.00
2013-9-6,75.0,59.0,51.8,80.1,78.2,77.0,0,0,100,30.24,30.14,21,9,27,0.00
2013-9-7,82.6,63.8,57.0,78.1,77.4,77.0,0,0,100,30.14,29.97,16,9,16,0.00
2013-9-8,83.5,69.1,61.7,79.0,78.0,77.0,0,0,100,30.07,29.88,22,15,22,0.00
2013-9-9,71.4,62.5,55.9,79.0,78.3,78.1,0,0,100,30.19,30.07,31,20,31,0.00
2013-9-10,87.8,72.6,62.8,81.0,78.8,78.1,0,0,100,30.22,30.13,28,16,28,0.00
2013-9-11,89.4,75.7,70.5,82.0,81.1,80.1,0,0,100,30.21,30.06,22,14,22,0.00
2013-9-12,83.1,71.8,65.3,82.0,81.8,81.0,0,0,100,30.06,29.78,41,16,41,0.00
2013-9-13,77.9,61.5,51.1,82.0,80.2,78.1,0,0,100,29.93,29.73,38,23,38,0.00
2013-9-14,69.1,52.3,44.1,78.1,74.9,70.0,0,0,100,30.14,29.92,34,19,34,0.00
2013-9-15,74.8,58.9,51.3,75.0,73.6,72.0,0,0,100,30.20,30.08,23,11,23,0.00
2013-9-16,62.4,58.6,54.0,75.0,75.0,75.0,0,0,100,30.22,30.04,26,18,26,0.00
2013-9-17,68.4,52.3,44.1,75.0,73.7,73.0,0,0,100,30.38,30.22,28,11,28,0.00
2013-9-18,70.9,53.6,46.6,73.0,72.6,71.1,0,0,100,30.29,30.16,26,17,26,0.00
2013-9-19,65.7,59.1,53.2,75.0,73.5,72.0,0,0,100,30.17,30.07,19,12,19,0.00
2013-9-20,77.5,63.3,58.5,77.0,75.7,75.0,0,0,100,30.08,29.95,31,18,31,0.00
2013-9-21,62.4,59.2,55.0,75.9,74.7,73.9,0,0,100,29.95,29.68,44,29,44,0.00
2013-9-22,70.9,55.0,48.4,73.9,72.9,72.0,0,0,100,29.94,29.72,30,21,30,0.00
2013-9-23,64.8,50.1,46.0,73.0,71.8,71.1,0,0,100,30.06,29.93,28,20,28,0.00
2013-9-24,68.0,53.5,46.4,72.0,71.0,70.0,0,0,100,30.07,29.96,18,6,20,0.00
2013-9-25,70.9,58.4,53.6,73.9,72.8,72.0,0,0,100,29.97,29.89,13,6,13,0.00
2013-9-26,68.4,59.5,54.1,75.9,74.3,73.0,0,0,100,30.07,29.92,17,10,17,0.00
2013-9-27,64.4,58.5,54.1,75.0,74.7,73.9,0,0,100,30.21,30.07,14,2,14,0.00
2013-9-28,59.4,55.2,51.4,75.0,73.7,73.0,0,0,100,30.29,30.19,22,10,22,0.00
2013-9-29,69.3,56.8,50.9,75.0,73.2,72.0,0,0,100,30.20,30.05,18,8,18,0.00
2013-9-30,70.0,59.2,53.1,75.0,74.0,73.0,0,0,100,30.07,29.99,16,9,16,0.00